Overview Statistics Trail Chart Weather Telemetry Raw packets
 

This is the latest recevied weather packets stored in our database for station/object KJ6HT. If no packets are shown the sender has not sent any weather packets the latest 10 day(s).

<< 25 26 27 28 29 30 31 >>
Time Temp. Humidity Pressure Rain* Wind** Luminosity Snow
1788035418 38.33° C 33% 1008.5 hPa 0 mm - - -
1788034586 38.33° C 34% 1008.6 hPa 0 mm - - -
1788033688 38.33° C 33% 1008.7 hPa 0 mm - - -
1788032720 38.89° C 30% 1008.9 hPa 0 mm - - -
1788031864 37.78° C 30% 1009.2 hPa 0 mm - - -
1788030919 38.33° C 31% 1009.3 hPa 0 mm - - -
1788030069 36.67° C 33% 1009.5 hPa 0 mm - - -
1788029138 36.11° C 36% 1009.7 hPa 0 mm - - -
1788028208 36.11° C 37% 1010 hPa 0 mm - - -
1788027373 36.11° C 38% 1010.1 hPa 0 mm - - -
1788026410 36.11° C 38% 1010.1 hPa 0 mm - - -
1788025565 34.44° C 44% 1010.2 hPa 0 mm - - -
1788024628 35° C 40% 1010.3 hPa 0 mm - - -
1788023773 36.11° C 40% 1010.5 hPa 0 mm - - -
1788022864 34.44° C 41% 1010.6 hPa 0 mm - - -
1788021926 33.33° C 46% 1010.6 hPa 0 mm - - -
1788021089 33.33° C 47% 1010.5 hPa 0 mm - - -
1788020119 31.67° C 53% 1010.4 hPa 0 mm - - -
1788019264 30.56° C 55% 1010.4 hPa 0 mm - - -
1788018318 30° C 55% 1010.5 hPa 0 mm - - -
1788017460 29.44° C 57% 1010.5 hPa 0 mm - - -
1788016518 29.44° C 58% 1010.5 hPa 0 mm - - -
1788015675 28.89° C 59% 1010.5 hPa 0 mm - - -
1788014715 27.78° C 63% 1010.4 hPa 0 mm - - -
1788013867 27.22° C 64% 1010.3 hPa 0 mm - - -

* Rain latest hour (hover to see other rain measurements)
** Current wind speed in m/s (hover to see current wind gust speed)